Location: Dover
(48.8500°N, 53.9833°W)
Time: 23:41:24
(UTC+00:00)

RESURS DK-1 - Visible Passes

Search period start: 15 February 2026 00:00
Search period end: 25 February 2026 00:00
Orbit: 526 x 531 km, 69.9° (Epoch: 15 February)

Date Brightness Start Highest point End Pass type
(mag) Time Alt. Az. Time Alt. Az. Time Alt. Az.
15 Feb 5.0 00:09:47 10° NW 00:10:34 15° NW 00:10:34 15° NW visible
15 Feb 3.9 22:21:35 10° N 22:24:25 18° NE 22:24:27 18° NE visible
15 Feb 4.5 23:58:15 10° NW 23:59:44 22° NW 23:59:44 22° NW visible
16 Feb 3.7 22:09:58 10° N 22:12:54 19° NE 22:13:41 18° ENE visible
16 Feb 3.9 23:46:43 10° NW 23:48:58 31° NW 23:48:58 31° NW visible
17 Feb 3.7 21:58:23 10° N 22:01:23 20° NE 22:03:02 16° ENE visible
17 Feb 3.2 23:35:11 10° NW 23:38:19 46° WNW 23:38:19 46° WNW visible
18 Feb 3.7 21:46:47 10° N 21:49:51 21° NE 21:52:31 12° E visible
18 Feb 2.9 23:23:39 10° NW 23:27:31 52° WSW 23:27:49 50° SW visible
19 Feb 3.6 21:35:11 10° N 21:38:19 22° NE 21:41:26 10° E visible
19 Feb 3.1 23:12:07 10° NW 23:15:57 48° WSW 23:17:29 30° S visible
20 Feb 3.2 23:00:34 10° NW 23:04:22 45° WSW 23:07:23 15° S visible
21 Feb 3.4 22:49:02 10° NW 22:52:47 43° WSW 22:56:32 10° S visible
22 Feb 3.6 22:37:29 10° NW 22:41:13 40° WSW 22:44:55 10° S visible
23 Feb 3.8 22:25:56 10° NW 22:29:38 38° WSW 22:33:17 10° S visible
24 Feb 4.0 22:14:24 10° NW 22:18:02 36° WSW 22:21:40 10° S visible
